Weather History for Kearney, NE

Change the Weather History Date:

Saturday, February 2, 2013

  Actual Average Record
Temperature  
Mean Temperature 43 °F 26 °F  
Max Temperature 55 °F 37 °F 69 °F (1962)
Min Temperature 30 °F 14 °F -18 °F (1996)
Degree Days  
Heating Degree Days 22 39  
Cooling Degree Days 0 0  
Moisture  
Dew Point 25 °F    
Average Humidity 57    
Maximum Humidity 89    
Minimum Humidity 24    
Precipitation  
Precipitation 0.00 in - 0.50 in (1982)
Sea Level Pressure  
Sea Level Pressure 30.15 in    
Wind  
Wind Speed 14 mph (West)    
Max Wind Speed 25 mph    
Max Gust Speed 36 mph    
Visibility 10 miles    
Events      
T = Trace of Precipitation, MM = Missing Value Source: NWS Daily Summary

Daily Weather History Graph

Daily Weather History Graph

Search for Another Location

Airport:

Trip Planner

Search our weather history database for the weather conditions in past years. The results will help you decide how hot, cold, wet, or windy it might be!

Date:

Astronomy

Feb. 02, 2013 Rise Set
Actual Time 7:44 AM CST 5:55 PM CST
Civil Twilight 7:15 AM CST 6:24 PM CST
Nautical Twilight 6:43 AM CST 6:56 PM CST
Astronomical Twilight 6:11 AM CST 7:29 PM CST
Moon 12:05 AM CST (2/2) 10:53 AM CST (2/2)
Length of Visible Light 11h 08m
Length of Day
10h 10m
Waning Gibbous, 59% of the Moon is Illuminated
Feb 2
Waning Gibbous
Feb 3
Last Quarter
Feb 10
New
Feb 17
First Quarter
Feb 25
Full

Hourly Weather History & Observations

Time (CST) Temp. Windchill Dew Point Humidity Pressure Visibility Wind Dir Wind Speed Gust Speed Precip Events Conditions
12:15 AM 35.6 °F 28.6 °F 28.4 °F 75% 30.10 in 10.0 mi WNW 9.2 mph - N/A   Clear
12:35 AM 30.2 °F 22.6 °F 28.4 °F 93% 30.10 in 10.0 mi WNW 8.1 mph - N/A   Clear
12:55 AM 33.8 °F 27.0 °F 28.4 °F 81% 30.10 in 10.0 mi WNW 8.1 mph - N/A   Clear
1:15 AM 30.2 °F 23.4 °F 28.4 °F 93% 30.11 in 10.0 mi West 6.9 mph - N/A   Clear
1:35 AM 32.0 °F 24.8 °F 28.4 °F 87% 30.11 in 10.0 mi West 8.1 mph - N/A   Clear
1:55 AM 32.0 °F 24.8 °F 28.4 °F 87% 30.11 in 10.0 mi West 8.1 mph - N/A   Clear
2:15 AM 32.0 °F 24.2 °F 28.4 °F 87% 30.12 in 10.0 mi WSW 9.2 mph - N/A   Scattered Clouds
2:35 AM 33.8 °F 27.7 °F 30.2 °F 87% 30.13 in 10.0 mi WSW 6.9 mph - N/A   Overcast
2:55 AM 33.8 °F 26.4 °F 30.2 °F 87% 30.13 in 10.0 mi WSW 9.2 mph - N/A   Overcast
3:15 AM 33.8 °F 28.6 °F 28.4 °F 81% 30.13 in 10.0 mi SW 5.8 mph - N/A   Overcast
3:35 AM 33.8 °F 27.0 °F 28.4 °F 81% 30.12 in 10.0 mi WSW 8.1 mph - N/A   Overcast
3:55 AM 33.8 °F 25.8 °F 28.4 °F 81% 30.13 in 10.0 mi WSW 10.4 mph - N/A   Scattered Clouds
4:15 AM 32.0 °F 23.0 °F 28.4 °F 87% 30.13 in 10.0 mi West 11.5 mph - N/A   Clear
4:35 AM 33.8 °F 25.3 °F 28.4 °F 81% 30.13 in 10.0 mi West 11.5 mph - N/A   Clear
4:55 AM 33.8 °F 25.8 °F 28.4 °F 81% 30.12 in 10.0 mi West 10.4 mph - N/A   Clear
5:15 AM 33.8 °F 25.8 °F 28.4 °F 81% 30.13 in 10.0 mi West 10.4 mph - N/A   Clear
5:35 AM 33.8 °F 23.9 °F 28.4 °F 81% 30.14 in 10.0 mi West 15.0 mph - N/A   Clear
5:55 AM 33.8 °F 25.3 °F 28.4 °F 81% 30.14 in 10.0 mi West 11.5 mph - N/A   Clear
6:15 AM 32.0 °F 22.5 °F 26.6 °F 80% 30.14 in 10.0 mi West 12.7 mph - N/A   Clear
6:35 AM 30.2 °F 20.8 °F 26.6 °F 86% 30.15 in 10.0 mi West 11.5 mph - N/A   Clear
6:55 AM 30.2 °F 20.8 °F 26.6 °F 86% 30.15 in 10.0 mi West 11.5 mph - N/A   Clear
7:15 AM 32.0 °F 22.1 °F 28.4 °F 87% 30.16 in 10.0 mi West 13.8 mph - N/A   Clear
7:35 AM 33.8 °F 24.8 °F 26.6 °F 75% 30.16 in 10.0 mi West 12.7 mph - N/A   Clear
7:55 AM 32.0 °F 23.0 °F 26.6 °F 80% 30.16 in 10.0 mi West 11.5 mph - N/A   Clear
8:15 AM 32.0 °F 23.6 °F 26.6 °F 80% 30.17 in 10.0 mi West 10.4 mph - N/A   Clear
8:35 AM 33.8 °F 25.3 °F 28.4 °F 81% 30.17 in 10.0 mi West 11.5 mph - N/A   Clear
8:55 AM 35.6 °F 28.6 °F 28.4 °F 75% 30.16 in 10.0 mi West 9.2 mph - N/A   Clear
9:15 AM 35.6 °F 27.5 °F 28.4 °F 75% 30.17 in 10.0 mi West 11.5 mph - N/A   Clear
9:35 AM 37.4 °F 28.9 °F 30.2 °F 75% 30.17 in 10.0 mi West 13.8 mph - N/A   Clear
9:55 AM 39.2 °F 31.6 °F 30.2 °F 70% 30.18 in 10.0 mi West 12.7 mph - N/A   Clear
10:15 AM 39.2 °F 30.8 °F 30.2 °F 70% 30.18 in 10.0 mi West 15.0 mph - N/A   Clear
10:35 AM 41.0 °F 32.8 °F 30.2 °F 65% 30.18 in 10.0 mi West 16.1 mph - N/A   Clear
10:55 AM 42.8 °F 35.8 °F 32.0 °F 66% 30.18 in 10.0 mi West 13.8 mph - N/A   Clear
11:15 AM 44.6 °F 37.8 °F 30.2 °F 57% 30.18 in 10.0 mi West 15.0 mph - N/A   Clear
11:35 AM 46.4 °F 39.5 °F 28.4 °F 50% 30.18 in 10.0 mi West 17.3 mph 23.0 mph N/A   Clear
11:55 AM 48.2 °F - 30.2 °F 50% 30.18 in 10.0 mi WNW 21.9 mph 26.5 mph N/A   Clear
12:15 PM 48.2 °F - 28.4 °F 46% 30.17 in 10.0 mi West 16.1 mph 25.3 mph N/A   Clear
12:35 PM 50.0 °F - 26.6 °F 40% 30.16 in 10.0 mi WNW 18.4 mph 25.3 mph N/A   Clear
12:55 PM 51.8 °F - 24.8 °F 35% 30.15 in 10.0 mi WNW 24.2 mph 29.9 mph N/A   Clear
1:15 PM 51.8 °F - 26.6 °F 38% 30.13 in 10.0 mi WNW 21.9 mph 28.8 mph N/A   Clear
1:35 PM 53.6 °F - 24.8 °F 33% 30.13 in 10.0 mi WNW 19.6 mph 27.6 mph N/A   Clear
1:55 PM 53.6 °F - 24.8 °F 33% 30.12 in 10.0 mi WNW 24.2 mph 27.6 mph N/A   Clear
2:15 PM 53.6 °F - 21.2 °F 28% 30.10 in 10.0 mi WNW 20.7 mph 27.6 mph N/A   Clear
2:35 PM 55.4 °F - 21.2 °F 26% 30.09 in 10.0 mi WNW 25.3 mph 31.1 mph N/A   Clear
2:55 PM 55.4 °F - 19.4 °F 25% 30.09 in 10.0 mi WNW 25.3 mph 28.8 mph N/A   Clear
3:15 PM 55.4 °F - 17.6 °F 23% 30.09 in 10.0 mi WNW 27.6 mph 35.7 mph N/A   Clear
3:35 PM 55.4 °F - 19.4 °F 25% 30.09 in 10.0 mi WNW 28.8 mph 34.5 mph N/A   Clear
3:55 PM 53.6 °F - 17.6 °F 24% 30.10 in 10.0 mi WNW 25.3 mph 35.7 mph N/A   Clear
4:15 PM 53.6 °F - 21.2 °F 28% 30.10 in 10.0 mi WNW 28.8 mph 36.8 mph N/A   Clear
4:35 PM 53.6 °F - 21.2 °F 28% 30.10 in 10.0 mi WNW 25.3 mph 29.9 mph N/A   Clear
4:55 PM 51.8 °F - 21.2 °F 30% 30.11 in 10.0 mi WNW 24.2 mph 32.2 mph N/A   Clear
5:15 PM 51.8 °F - 21.2 °F 30% 30.12 in 10.0 mi NW 19.6 mph 28.8 mph N/A   Clear
5:35 PM 48.2 °F - 21.2 °F 34% 30.13 in 10.0 mi WNW 16.1 mph 25.3 mph N/A   Clear
5:55 PM 46.4 °F 40.4 °F 19.4 °F 34% 30.13 in 10.0 mi WNW 13.8 mph - N/A   Clear
6:15 PM 44.6 °F 38.4 °F 19.4 °F 37% 30.13 in 10.0 mi WNW 12.7 mph - N/A   Clear
6:35 PM 42.8 °F 36.6 °F 19.4 °F 39% 30.14 in 10.0 mi WNW 11.5 mph - N/A   Clear
6:55 PM 37.4 °F 30.3 °F 21.2 °F 52% 30.15 in 10.0 mi WNW 10.4 mph - N/A   Clear
7:15 PM 39.2 °F 31.2 °F 21.2 °F 49% 30.15 in 10.0 mi West 13.8 mph - N/A   Clear
7:35 PM 41.0 °F 34.3 °F 21.2 °F 45% 30.16 in 10.0 mi West 11.5 mph - N/A   Clear
7:55 PM 41.0 °F 33.9 °F 21.2 °F 45% 30.16 in 10.0 mi West 12.7 mph - N/A   Clear
8:15 PM 41.0 °F 33.5 °F 21.2 °F 45% 30.16 in 10.0 mi West 13.8 mph - N/A   Clear
8:35 PM 41.0 °F 33.1 °F 21.2 °F 45% 30.16 in 10.0 mi West 15.0 mph - N/A   Clear
8:55 PM 41.0 °F 33.5 °F 21.2 °F 45% 30.17 in 10.0 mi West 13.8 mph 23.0 mph N/A   Clear
9:15 PM 39.2 °F 30.5 °F 23.0 °F 52% 30.17 in 10.0 mi West 16.1 mph 20.7 mph N/A   Clear
9:35 PM 39.2 °F 30.8 °F 23.0 °F 52% 30.18 in 10.0 mi WNW 15.0 mph - N/A   Clear
9:55 PM 37.4 °F 29.8 °F 23.0 °F 56% 30.20 in 10.0 mi WNW 11.5 mph - N/A   Clear
10:15 PM 37.4 °F 29.3 °F 24.8 °F 60% 30.21 in 10.0 mi WNW 12.7 mph - N/A   Clear
10:35 PM 39.2 °F 31.2 °F 23.0 °F 52% 30.21 in 10.0 mi WNW 13.8 mph - N/A   Clear
10:55 PM 37.4 °F 29.3 °F 23.0 °F 56% 30.21 in 10.0 mi WNW 12.7 mph - N/A   Clear
11:15 PM 35.6 °F 27.5 °F 23.0 °F 60% 30.23 in 10.0 mi West 11.5 mph - N/A   Clear
11:35 PM 35.6 °F 28.0 °F 23.0 °F 60% 30.23 in 10.0 mi West 10.4 mph - N/A   Clear
11:55 PM 35.6 °F 27.5 °F 21.2 °F 56% 30.23 in 10.0 mi WNW 11.5 mph - N/A   Clear